This is the latest recevied weather packets stored in our database for station/object KC5DAQ-27. If no packets are shown the sender has not sent any weather packets the latest 10 day(s).
| Time | Temp. | Humidity | Pressure | Rain* | Wind** | Luminosity | Snow |
|---|---|---|---|---|---|---|---|
| 1788633904 | 35° C | 59% | 1004 hPa | 0 mm | - | 1095 W/m² | - |
| 1788633842 | 35° C | 60% | 1004 hPa | 0 mm | - | 1097 W/m² | - |
| 1788633787 | 35° C | 60% | 1004 hPa | 0 mm | - | 1097 W/m² | - |
| 1788633723 | 35° C | 61% | 1004 hPa | 0 mm | - | 1094 W/m² | - |
| 1788633663 | 35° C | 61% | 1003.9 hPa | 0 mm | - | 1090 W/m² | - |
| 1788633603 | 34.44° C | 61% | 1003.9 hPa | 0 mm | - | 1088 W/m² | - |
| 1788633543 | 34.44° C | 61% | 1003.8 hPa | 0 mm | - | 1088 W/m² | - |
| 1788633481 | 34.44° C | 62% | 1004 hPa | 0 mm | - | 1092 W/m² | - |
| 1788633420 | 34.44° C | 62% | 1003.9 hPa | 0 mm | - | 1097 W/m² | - |
| 1788633358 | 34.44° C | 62% | 1003.9 hPa | 0 mm | - | 1101 W/m² | - |
| 1788633297 | 34.44° C | 63% | 1003.9 hPa | 0 mm | - | 1097 W/m² | - |
| 1788633250 | 34.44° C | 62% | 1004 hPa | 0 mm | - | 1094 W/m² | - |
| 1788633174 | 34.44° C | 63% | 1004 hPa | 0 mm | - | 1094 W/m² | - |
| 1788633111 | 34.44° C | 64% | 1004 hPa | 0 mm | - | 1097 W/m² | - |
| 1788633051 | 34.44° C | 63% | 1004.1 hPa | 0 mm | - | 1108 W/m² | - |
| 1788632989 | 34.44° C | 63% | 1004.1 hPa | 0 mm | - | 1120 W/m² | - |
| 1788632927 | 34.44° C | 63% | 1004 hPa | 0 mm | - | 1120 W/m² | - |
| 1788632866 | 34.44° C | 63% | 1004.3 hPa | 0 mm | - | 1124 W/m² | - |
| 1788632805 | 34.44° C | 64% | 1004.2 hPa | 0 mm | - | 1125 W/m² | - |
| 1788632744 | 34.44° C | 63% | 1004.2 hPa | 0 mm | - | 1122 W/m² | - |
| 1788632682 | 34.44° C | 64% | 1004.3 hPa | 0 mm | - | 1117 W/m² | - |
| 1788632620 | 34.44° C | 63% | 1004.3 hPa | 0 mm | - | 1109 W/m² | - |
| 1788632559 | 34.44° C | 63% | 1004.3 hPa | 0 mm | - | 1117 W/m² | - |
| 1788632497 | 34.44° C | 63% | 1004.3 hPa | 0 mm | - | 1134 W/m² | - |
| 1788632436 | 34.44° C | 64% | 1004.3 hPa | 0 mm | - | 1141 W/m² | - |
* Rain latest hour (hover to see other rain measurements)
** Current wind speed in m/s (hover to see current wind gust speed)